�N����,����,�~����,�C��,���x,�C��,����,���ϕ���,�ő�u�ԕ���,�ő厞����,���˗�,�I�_���x,�n�����x,�ő啗���N��,DTYPE
"22/08/17","00:10",0.8,24.6,94.8,1002.6,316.1,0.3,1.0,340.0,0.00,23.8,26.1,"00:02:08",1
"22/08/17","00:20",1.2,24.7,94.9,1002.6,268.7,0.3,1.0,256.8,0.00,23.9,26.0,"00:16:24",1
"22/08/17","00:30",0.4,24.8,94.9,1002.6,327.8,0.5,1.0,316.0,0.00,24.0,26.0,"00:28:00",1
"22/08/17","00:40",0.0,24.7,95.0,1002.6,214.0,0.1,0.5,204.5,0.00,23.9,25.9,"00:37:44",1
"22/08/17","00:50",0.0,24.7,95.0,1002.6,261.0,0.2,0.9,290.5,0.00,23.9,26.0,"00:41:12",1
"22/08/17","01:00",0.0,24.7,95.1,1002.9,336.8,0.1,0.5,339.4,0.00,23.9,26.2,"00:59:52",1
"22/08/17","01:10",0.0,24.8,95.2,1002.6,354.9,0.7,1.6,6.3,0.00,24.0,25.9,"01:07:04",1
"22/08/17","01:20",0.0,24.8,95.2,1002.4,348.3,0.7,1.4,4.7,0.00,24.0,26.0,"01:11:28",1
"22/08/17","01:30",0.0,24.7,95.3,1002.6,281.6,0.2,0.8,334.9,0.00,23.9,25.8,"01:22:32",1
"22/08/17","01:40",0.0,24.8,95.4,1002.9,279.0,0.3,0.9,346.9,0.00,24.1,26.0,"01:39:52",1
"22/08/17","01:50",0.0,24.7,95.4,1002.6,295.4,0.6,1.2,329.1,0.00,24.0,25.9,"01:43:28",1
"22/08/17","02:00",0.2,24.8,95.4,1002.4,312.1,0.3,0.8,319.8,0.00,24.1,25.9,"01:53:44",1
"22/08/17","02:10",0.2,24.7,95.5,1002.4,306.4,0.5,1.2,302.4,0.00,24.0,26.1,"02:07:04",1
"22/08/17","02:20",0.0,24.7,95.6,1002.6,324.1,0.5,1.1,359.4,0.00,24.0,26.0,"02:19:36",1
"22/08/17","02:30",0.0,24.8,95.6,1002.6,332.1,0.6,1.1,350.8,0.00,24.1,26.1,"02:20:56",1
"22/08/17","02:40",1.0,24.8,95.7,1002.9,309.5,0.7,1.1,345.1,0.00,24.1,26.1,"02:33:44",1
"22/08/17","02:50",1.8,24.6,95.8,1002.6,300.6,0.2,0.8,317.0,0.00,23.9,26.1,"02:40:24",1
"22/08/17","03:00",0.4,24.7,95.8,1002.9,315.9,0.6,1.1,299.9,0.00,24.0,26.0,"02:52:56",1
"22/08/17","03:10",1.8,24.7,95.8,1002.6,265.7,0.3,0.9,280.0,0.00,24.0,25.9,"03:00:32",1
"22/08/17","03:20",0.8,24.6,95.9,1002.9,281.9,0.3,0.8,306.3,0.00,23.9,26.2,"03:11:20",1
"22/08/17","03:30",0.8,24.7,96.0,1002.9,1.7,0.5,1.0,8.3,0.00,24.1,25.8,"03:28:56",1
"22/08/17","03:40",0.8,24.6,96.0,1002.4,265.0,0.5,1.1,4.8,0.00,24.0,25.8,"03:31:04",1
"22/08/17","03:50",1.0,24.5,96.1,1003.1,169.9,0.3,0.8,190.4,0.00,23.9,25.9,"03:45:44",1
"22/08/17","04:00",1.2,24.6,96.1,1003.4,231.5,1.0,1.9,200.3,0.00,24.0,26.0,"03:50:40",1
"22/08/17","04:10",5.8,24.5,96.1,1003.1,9.2,1.2,3.3,357.3,0.00,23.9,25.8,"04:02:48",1
"22/08/17","04:20",4.8,23.6,96.1,1003.4,150.1,1.0,1.7,133.5,0.00,23.0,25.6,"04:16:56",1
"22/08/17","04:30",0.0,23.4,96.4,1003.6,226.2,1.0,2.4,209.1,0.00,22.8,25.7,"04:21:04",1
"22/08/17","04:40",0.0,23.5,96.5,1003.4,310.7,0.5,1.1,341.8,0.00,23.0,25.8,"04:34:40",1
"22/08/17","04:50",0.6,23.6,96.5,1003.6,324.4,1.0,1.9,316.3,0.00,23.1,25.8,"04:49:28",1
"22/08/17","05:00",2.0,23.6,96.5,1003.6,311.1,1.0,2.4,312.2,0.00,23.1,25.7,"04:51:44",1
"22/08/17","05:10",5.8,23.5,96.5,1003.8,289.8,1.0,2.4,305.9,0.00,23.0,25.4,"05:04:08",1
"22/08/17","05:20",8.8,23.5,96.6,1003.6,151.9,0.7,1.9,208.3,0.00,23.0,25.3,"05:10:16",1
"22/08/17","05:30",2.0,23.5,96.7,1003.6,153.8,0.8,1.7,119.5,0.00,23.0,25.2,"05:23:54",1
"22/08/17","05:40",0.0,23.6,96.7,1003.6,108.5,0.5,1.7,96.0,0.00,23.1,25.3,"05:33:52",1
"22/08/17","05:50",0.0,23.5,96.7,1004.1,193.0,0.5,1.1,213.1,0.00,23.0,25.2,"05:43:28",1
"22/08/17","06:00",0.0,23.5,96.7,1003.8,276.0,0.1,0.6,243.0,0.00,23.0,25.3,"05:53:52",1
"22/08/17","06:10",0.0,23.6,96.7,1003.8,351.1,0.5,1.1,338.3,0.00,23.1,25.3,"06:06:24",1
"22/08/17","06:20",0.0,23.6,96.8,1003.6,350.0,0.3,0.8,353.5,0.00,23.1,25.3,"06:11:52",1
"22/08/17","06:30",0.0,23.7,96.8,1004.1,272.6,0.5,0.9,243.6,0.00,23.2,25.2,"06:20:32",1
"22/08/17","06:40",0.0,23.8,96.8,1003.8,260.8,0.6,1.2,240.9,0.00,23.3,25.2,"06:38:24",1
"22/08/17","06:50",0.0,23.9,96.8,1004.1,286.9,0.6,1.7,259.1,0.01,23.4,25.2,"06:47:20",1
"22/08/17","07:00",0.0,23.9,96.9,1004.5,256.8,0.3,1.1,239.2,0.01,23.4,25.3,"06:50:16",1
"22/08/17","07:10",0.0,24.1,96.8,1004.1,268.2,0.2,0.5,306.7,0.02,23.6,25.3,"07:05:04",1
"22/08/17","07:20",0.0,24.2,96.8,1003.8,290.2,0.1,0.5,310.7,0.02,23.7,25.3,"07:11:44",1
"22/08/17","07:30",0.0,24.0,96.8,1004.1,212.0,0.5,0.8,213.0,0.02,23.5,25.2,"07:24:48",1
"22/08/17","07:40",0.0,24.2,96.9,1004.3,313.2,0.3,0.9,326.5,0.03,23.7,25.4,"07:32:32",1
"22/08/17","07:50",0.0,24.2,97.0,1004.3,238.0,0.5,1.0,232.8,0.06,23.7,25.3,"07:42:24",1
"22/08/17","08:00",0.0,24.5,96.9,1003.6,12.3,0.3,0.8,316.5,0.08,24.0,25.2,"07:50:24",1
"22/08/17","08:10",0.0,24.4,96.9,1004.1,299.3,0.3,1.1,250.0,0.05,23.9,25.1,"08:05:52",1
"22/08/17","08:20",0.0,24.4,96.9,1003.8,288.3,0.5,1.0,320.9,0.04,23.9,25.5,"08:16:00",1
"22/08/17","08:30",0.0,24.6,96.9,1004.1,269.9,0.3,0.8,244.2,0.05,24.1,25.3,"08:21:12",1
"22/08/17","08:40",0.0,24.6,96.9,1004.1,225.5,0.2,0.6,204.5,0.05,24.1,25.2,"08:32:32",1
"22/08/17","08:50",0.0,24.8,96.9,1004.1,313.3,0.6,1.8,343.4,0.04,24.3,25.1,"08:43:04",1
"22/08/17","09:00",0.0,24.7,96.8,1004.3,304.4,0.7,1.2,315.5,0.03,24.2,25.3,"08:53:28",1
"22/08/17","09:10",0.0,24.9,97.0,1004.3,309.7,0.6,1.1,343.1,0.08,24.4,25.4,"09:07:36",1
"22/08/17","09:20",0.0,25.0,97.0,1004.1,326.3,0.6,1.4,311.7,0.11,24.5,25.6,"09:19:28",1
"22/08/17","09:30",0.0,25.4,96.7,1004.1,296.6,0.6,1.3,315.7,0.12,24.9,25.4,"09:21:12",1
"22/08/17","09:40",0.0,25.5,96.9,1004.1,328.8,0.6,1.7,346.4,0.13,25.0,25.4,"09:34:40",1
"22/08/17","09:50",0.0,25.4,96.8,1003.8,9.0,0.5,0.9,7.8,0.09,24.9,25.3,"09:42:56",1
"22/08/17","10:00",0.0,25.5,96.8,1004.1,316.9,0.5,1.6,353.8,0.06,25.0,25.2,"09:56:56",1
"22/08/17","10:10",0.0,25.4,96.9,1003.8,319.5,0.8,1.4,306.8,0.06,24.9,25.4,"10:03:12",1
"22/08/17","10:20",0.2,25.4,96.9,1004.3,322.8,0.8,1.6,340.7,0.05,24.9,25.5,"10:10:48",1
"22/08/17","10:30",0.6,25.4,96.9,1004.1,332.4,0.7,1.6,329.8,0.05,24.9,25.4,"10:24:40",1
"22/08/17","10:40",0.4,25.1,96.9,1004.8,289.9,0.6,1.4,333.3,0.02,24.6,25.6,"10:34:56",1
"22/08/17","10:50",2.6,24.9,96.8,1005.0,259.0,0.6,1.4,245.4,0.00,24.4,25.4,"10:45:28",1
"22/08/17","11:00",8.6,24.5,96.9,1005.2,245.4,0.8,2.0,237.9,0.00,24.0,25.5,"10:58:16",1
"22/08/17","11:10",4.6,24.2,97.1,1004.5,352.6,0.7,1.4,347.5,0.00,23.8,25.6,"11:05:54",1
"22/08/17","11:20",1.8,24.3,97.1,1004.8,209.3,0.3,1.6,216.9,0.00,23.8,25.4,"11:19:28",1
"22/08/17","11:30",0.4,24.3,97.1,1004.3,207.7,1.0,2.1,223.0,0.00,23.8,25.7,"11:21:20",1
"22/08/17","11:40",0.4,24.5,97.1,1004.1,297.0,0.7,1.6,317.4,0.00,24.0,25.5,"11:38:40",1
"22/08/17","11:50",0.2,24.6,97.1,1004.3,275.9,0.6,1.1,340.3,0.02,24.1,25.4,"11:44:40",1
"22/08/17","12:00",0.0,24.9,97.1,1004.3,199.8,0.2,1.2,151.1,0.05,24.4,25.5,"11:58:48",1
"22/08/17","12:10",0.2,24.9,97.0,1003.8,200.4,0.5,1.2,188.9,0.06,24.4,25.6,"12:07:36",1
"22/08/17","12:20",0.0,25.1,97.1,1004.1,225.3,0.8,1.7,231.8,0.07,24.6,25.4,"12:19:36",1
"22/08/17","12:30",0.0,25.0,97.0,1003.8,176.0,1.1,2.2,203.6,0.05,24.5,25.5,"12:24:08",1
"22/08/17","12:40",0.0,25.1,97.0,1003.8,174.5,0.8,1.9,153.5,0.04,24.6,25.4,"12:31:04",1
"22/08/17","12:50",0.0,25.2,97.0,1003.8,180.1,0.5,1.3,213.7,0.04,24.7,25.6,"12:47:04",1
"22/08/17","13:00",0.0,25.5,97.0,1004.1,153.4,0.7,1.4,127.4,0.10,25.0,25.5,"12:53:36",1
"22/08/17","13:10",0.0,25.6,96.8,1003.8,202.4,0.6,1.2,174.1,0.10,25.1,25.5,"13:02:16",1
"22/08/17","13:20",0.0,25.6,96.8,1003.4,225.9,0.5,1.0,234.6,0.05,25.1,25.6,"13:12:00",1
"22/08/17","13:30",0.0,25.4,96.7,1003.6,205.7,0.8,2.5,225.3,0.03,24.9,25.4,"13:29:20",1
"22/08/17","13:40",0.0,25.3,96.8,1004.1,199.2,1.2,2.4,224.2,0.04,24.8,25.3,"13:36:40",1
"22/08/17","13:50",0.0,25.5,96.8,1003.8,213.2,0.5,1.1,209.2,0.03,25.0,25.5,"13:41:52",1
"22/08/17","14:00",0.0,26.0,96.9,1003.8,155.5,0.5,1.3,156.1,0.14,25.5,25.7,"13:51:44",1
"22/08/17","14:10",0.0,26.1,96.5,1002.9,239.0,0.7,1.4,214.1,0.17,25.5,25.3,"14:09:28",1
"22/08/17","14:20",0.0,26.2,96.6,1003.1,262.9,0.6,1.2,220.6,0.06,25.7,25.6,"14:10:32",1
"22/08/17","14:30",0.0,26.6,96.6,1003.1,215.2,0.2,1.1,145.0,0.14,26.1,25.7,"14:29:28",1
"22/08/17","14:40",0.0,26.2,96.4,1002.9,179.4,1.3,2.6,162.0,0.22,25.6,25.5,"14:32:08",1
"22/08/17","14:50",0.0,26.2,96.6,1002.9,212.1,1.6,2.9,232.8,0.15,25.7,25.5,"14:46:32",1
"22/08/17","15:00",0.0,26.5,96.5,1002.6,343.3,0.5,1.3,304.1,0.09,25.9,25.5,"14:52:00",1
"22/08/17","15:10",0.0,26.9,96.5,1002.6,128.6,0.6,1.4,136.1,0.15,26.3,25.6,"15:01:12",1
"22/08/17","15:20",0.0,26.5,96.2,1002.6,5.3,0.7,1.6,350.3,0.06,25.9,25.6,"15:10:16",1
"22/08/17","15:30",0.0,26.3,96.0,1002.2,158.8,0.7,1.4,355.6,0.04,25.7,25.5,"15:20:32",1
"22/08/17","15:40",0.0,26.4,96.0,1002.4,198.5,0.8,3.2,211.4,0.08,25.7,25.6,"15:35:44",1
"22/08/17","15:50",0.0,26.6,96.0,1002.2,238.2,0.7,1.6,248.2,0.06,25.9,25.6,"15:44:48",1
"22/08/17","16:00",0.0,26.8,95.8,1001.9,229.8,0.5,1.1,225.5,0.06,26.1,25.6,"15:55:04",1
"22/08/17","16:10",0.0,27.0,95.8,1002.2,255.9,0.3,0.9,308.2,0.05,26.3,25.7,"16:09:20",1
"22/08/17","16:20",0.0,26.7,95.6,1002.4,289.9,0.7,1.9,227.9,0.10,26.0,25.7,"16:15:36",1
"22/08/17","16:30",0.0,26.7,95.3,1002.6,319.2,0.7,1.7,317.7,0.07,25.9,25.5,"16:21:12",1
"22/08/17","16:40",0.0,26.6,95.4,1002.2,325.4,0.8,1.6,331.1,0.05,25.8,25.5,"16:32:32",1
"22/08/17","16:50",0.0,27.0,95.2,1002.2,283.0,0.2,0.9,338.8,0.08,26.2,25.6,"16:49:36",1
"22/08/17","17:00",0.0,26.9,94.9,1002.2,337.6,0.8,1.6,328.6,0.05,26.1,25.7,"16:54:48",1
"22/08/17","17:10",0.0,26.8,94.9,1002.2,314.3,0.7,1.8,345.7,0.02,26.0,25.9,"17:01:20",1
"22/08/17","17:20",0.0,27.2,94.8,1002.2,223.2,0.3,1.1,238.0,0.04,26.3,25.7,"17:11:36",1
"22/08/17","17:30",0.0,26.8,94.4,1002.4,297.3,0.8,2.0,0.7,0.02,25.9,25.8,"17:29:28",1
"22/08/17","17:40",0.0,26.8,94.4,1002.2,331.9,0.8,1.8,325.3,0.00,25.9,25.7,"17:32:32",1
"22/08/17","17:50",0.0,27.0,94.3,1002.4,329.1,0.7,1.1,332.1,0.00,26.0,25.6,"17:40:32",1
"22/08/17","18:00",0.0,27.1,94.2,1002.2,307.1,0.7,1.3,331.3,0.00,26.1,25.8,"17:52:32",1
"22/08/17","18:10",0.0,27.0,94.1,1002.4,270.1,0.8,1.6,246.0,0.00,26.0,25.8,"18:06:32",1
"22/08/17","18:20",0.0,26.8,94.0,1002.2,324.8,1.0,1.3,314.1,0.00,25.8,25.8,"18:14:48",1
"22/08/17","18:30",0.0,26.7,94.0,1002.4,333.6,0.7,1.2,331.0,0.00,25.7,25.8,"18:20:56",1
"22/08/17","18:40",0.0,26.7,94.0,1002.4,286.9,0.5,0.9,335.9,0.00,25.7,25.7,"18:37:44",1
"22/08/17","18:50",0.0,26.5,93.8,1002.4,317.0,0.8,1.6,346.1,0.00,25.5,26.0,"18:48:56",1
"22/08/17","19:00",0.0,26.4,93.8,1002.4,334.8,0.8,1.3,335.4,0.00,25.4,25.9,"18:54:32",1
"22/08/17","19:10",0.0,26.2,93.8,1002.2,310.1,0.6,1.0,261.1,0.00,25.2,25.8,"19:06:32",1
"22/08/17","19:20",0.0,26.0,93.7,1002.4,214.0,0.5,1.2,183.0,0.00,24.9,25.9,"19:17:20",1
"22/08/17","19:30",0.0,26.2,93.7,1002.9,344.6,0.8,1.9,354.8,0.00,25.1,25.8,"19:23:28",1
"22/08/17","19:40",0.0,26.1,93.7,1002.6,345.2,1.1,2.0,345.4,0.00,25.0,25.9,"19:38:08",1
"22/08/17","19:50",2.2,25.9,93.7,1002.6,329.3,0.8,1.7,331.8,0.00,24.8,25.7,"19:41:12",1
"22/08/17","20:00",0.2,25.7,93.8,1002.9,14.0,0.6,1.0,351.3,0.00,24.7,25.8,"19:52:24",1
"22/08/17","20:10",0.2,25.6,93.9,1003.1,335.8,0.6,1.4,11.4,0.00,24.6,25.7,"20:01:36",1
"22/08/17","20:20",0.8,25.5,93.9,1002.9,50.8,0.2,0.5,109.9,0.00,24.5,26.2,"20:11:52",1
"22/08/17","20:30",0.0,25.5,94.1,1002.9,304.6,0.6,1.8,354.4,0.00,24.5,25.8,"20:20:02",1
"22/08/17","20:40",0.4,25.6,94.1,1002.9,1.2,0.7,1.7,351.7,0.00,24.6,25.7,"20:30:24",1
"22/08/17","20:50",2.0,25.5,94.2,1003.1,1.3,0.6,1.8,5.1,0.00,24.5,25.9,"20:44:40",1
"22/08/17","21:00",0.2,25.3,94.3,1002.9,302.6,0.3,0.8,356.0,0.00,24.4,25.7,"20:50:48",1
"22/08/17","21:10",0.0,25.4,94.5,1003.4,247.6,0.7,1.9,234.7,0.00,24.5,25.7,"21:08:16",1
"22/08/17","21:20",1.0,25.4,94.6,1003.1,239.6,0.7,2.4,235.0,0.00,24.5,25.9,"21:10:16",1
"22/08/17","21:30",3.4,25.4,94.6,1003.1,216.8,1.5,2.6,211.9,0.00,24.5,25.7,"21:23:36",1
"22/08/17","21:40",0.6,25.2,94.7,1003.6,133.3,0.7,1.9,124.5,0.00,24.3,26.0,"21:34:48",1
"22/08/17","21:50",0.0,25.2,94.8,1003.6,173.7,0.7,1.9,192.0,0.00,24.3,25.6,"21:43:20",1
"22/08/17","22:00",0.0,25.2,94.9,1003.4,132.8,0.6,1.1,99.5,0.00,24.4,25.7,"21:50:40",1
"22/08/17","22:10",0.0,25.0,94.9,1003.4,180.6,0.7,1.3,130.4,0.00,24.2,25.4,"22:08:08",1
"22/08/17","22:20",0.6,24.6,95.0,1003.1,176.3,1.0,1.7,158.9,0.00,23.8,25.7,"22:13:04",1
"22/08/17","22:30",1.4,24.5,95.1,1002.9,183.9,0.5,1.6,211.4,0.00,23.7,25.5,"22:22:00",1
"22/08/17","22:40",4.2,24.6,95.3,1003.1,159.1,0.6,1.3,197.9,0.00,23.8,25.7,"22:38:28",1
"22/08/17","22:50",5.4,24.5,95.1,1003.4,301.2,0.7,2.4,230.4,0.00,23.7,25.7,"22:47:04",1
"22/08/17","23:00",11.4,24.1,95.4,1003.6,297.5,1.1,2.4,240.8,0.00,23.4,25.6,"22:52:16",1
"22/08/17","23:10",10.4,23.5,95.4,1002.9,233.6,1.1,4.9,238.6,0.00,22.8,25.6,"23:04:24",1
"22/08/17","23:20",5.6,23.4,95.7,1003.4,97.0,0.5,1.4,210.6,0.00,22.7,25.7,"23:10:48",1
"22/08/17","23:30",9.0,23.3,95.7,1003.1,345.2,0.8,2.5,357.3,0.00,22.6,25.5,"23:28:48",1
"22/08/17","23:40",8.6,23.4,95.9,1003.1,353.9,2.0,3.9,352.1,0.00,22.7,25.7,"23:35:38",1
"22/08/17","23:50",3.6,23.6,95.9,1002.9,321.9,1.7,4.1,334.9,0.00,22.9,25.7,"23:41:30",1
"22/08/17","24:00",0.4,23.5,96.0,1002.2,308.6,1.2,2.8,336.4,0.00,22.9,25.7,"23:57:36",1
